sat.trackr.live / text

‹ back to catalog

JILIN-1 GAOFEN 3D30

NORAD 52447 · 2022-048E

PAYLOAD ACTIVE UNKNOWN

§ Identity

Operator
Country
PRC
Launch date
2022-05-05
Launch site
TAISC
Launch vehicle
Mass (kg)
RCS (m²)

External: N2YO · Heavens-Above · Gunter

§ Orbital elements

Epoch: 2026-06-30T01:52:35.529600Z

Period
87.87 min
Inclination
97.5521°
Eccentricity
0.0014850
Mean motion
16.38798232 rev/d
Perigee alt
159.3 km
Apogee alt
178.7 km
Semi-major
6,547.1 km
B*
6.2318e-4
RAAN
301.1486°
Arg perigee
272.3622°
Mean anomaly
87.5976°
Rev number
23,184

§ Raw data

JILIN-1 GAOFEN 3D301 52447U 22048E   26181.07818900  .06998647  26373-5  62318-3 0  99972 52447  97.5521 301.1486 0014850 272.3622  87.5976 16.38798232231847

JSON: /api/v1/satellites/52447 · /tle

For live sub-satellite position, see the globe view (requires WebGL).

§ Visibility from observer

Set your observer location to see the next 7 days of passes ≥ 10°. The values pass through the URL so the page stays shareable.

No JS? Fill the form by hand. The geolocation button needs JavaScript.